Time,TemperatureF,DewpointF,PressureIn,WindDirection,WindDirectionDegrees,WindSpeedMPH,WindSpeedGustMPH,Humidity,HourlyPrecipIn,Conditions,Clouds,dailyrainin,SolarRadiationWatts/m^2,SoftwareType,DateUTC
2013-03-30 00:05:00,57.5,53.0,30.16,SSE,166,0.0,0.0,85,0.00,,,0.00,0,Wunderground v.1.15,2013-03-30 05:05:00,
2013-03-30 00:10:00,57.4,53.2,30.16,South,171,0.0,0.0,86,0.00,,,0.00,0,Wunderground v.1.15,2013-03-30 05:10:00,
2013-03-30 00:15:00,57.2,53.0,30.15,SW,224,0.0,0.0,86,0.00,,,0.00,0,Wunderground v.1.15,2013-03-30 05:15:00,
2013-03-30 00:20:00,57.1,53.0,30.16,SW,220,0.0,0.0,86,0.00,,,0.00,0,Wunderground v.1.15,2013-03-30 05:20:00,
2013-03-30 00:26:00,57.1,53.0,30.16,SW,218,0.0,0.0,86,0.00,,,0.00,0,Wunderground v.1.15,2013-03-30 05:26:00,
2013-03-30 00:31:00,57.1,53.0,30.16,SSW,208,0.0,0.0,86,0.00,,,0.00,0,Wunderground v.1.15,2013-03-30 05:31:00,
2013-03-30 00:37:00,57.0,52.9,30.16,SSW,208,0.0,0.0,86,0.00,,,0.00,0,Wunderground v.1.15,2013-03-30 05:37:00,
2013-03-30 00:42:00,56.8,53.0,30.16,SSW,208,0.0,0.0,87,0.00,,,0.00,0,Wunderground v.1.15,2013-03-30 05:42:00,
2013-03-30 00:47:00,56.7,52.9,30.16,SSW,208,0.0,0.0,87,0.00,,,0.00,0,Wunderground v.1.15,2013-03-30 05:47:00,
2013-03-30 00:52:00,56.5,52.7,30.16,SSW,208,0.0,0.0,87,0.00,,,0.00,0,Wunderground v.1.15,2013-03-30 05:52:00,
2013-03-30 00:58:00,56.3,52.5,30.16,SSW,208,0.0,0.0,87,0.00,,,0.00,0,Wunderground v.1.15,2013-03-30 05:58:00,
2013-03-30 01:03:00,56.1,52.6,30.16,SSW,208,0.0,1.0,88,0.00,,,0.00,0,Wunderground v.1.15,2013-03-30 06:03:00,
2013-03-30 01:08:00,56.1,52.6,30.16,South,188,0.0,1.0,88,0.00,,,0.00,0,Wunderground v.1.15,2013-03-30 06:08:00,
2013-03-30 01:14:00,56.0,52.5,30.15,South,188,0.0,0.0,88,0.00,,,0.00,0,Wunderground v.1.15,2013-03-30 06:14:00,
2013-03-30 01:19:00,55.9,52.4,30.15,South,187,0.0,0.0,88,0.00,,,0.00,0,Wunderground v.1.15,2013-03-30 06:19:00,
2013-03-30 01:25:00,55.8,52.3,30.15,South,187,0.0,0.0,88,0.00,,,0.00,0,Wunderground v.1.15,2013-03-30 06:25:00,
2013-03-30 01:30:00,55.8,52.6,30.16,South,187,0.0,0.0,89,0.00,,,0.00,0,Wunderground v.1.15,2013-03-30 06:30:00,
2013-03-30 01:35:00,55.7,52.5,30.15,South,187,0.0,0.0,89,0.00,,,0.00,0,Wunderground v.1.15,2013-03-30 06:35:00,
2013-03-30 01:41:00,55.6,52.4,30.15,South,187,0.0,0.0,89,0.00,,,0.00,0,Wunderground v.1.15,2013-03-30 06:41:00,
2013-03-30 01:46:00,55.5,52.3,30.15,South,187,0.0,0.0,89,0.00,,,0.00,0,Wunderground v.1.15,2013-03-30 06:46:00,
2013-03-30 01:51:00,55.4,52.2,30.15,South,187,0.0,0.0,89,0.00,,,0.00,0,Wunderground v.1.15,2013-03-30 06:51:00,
2013-03-30 01:56:00,55.3,52.1,30.15,South,187,0.0,0.0,89,0.00,,,0.00,0,Wunderground v.1.15,2013-03-30 06:56:00,
2013-03-30 02:01:00,55.3,52.1,30.14,South,187,0.0,0.0,89,0.00,,,0.00,0,Wunderground v.1.15,2013-03-30 07:01:00,
2013-03-30 02:06:00,55.1,52.2,30.14,South,188,0.0,0.0,90,0.00,,,0.00,0,Wunderground v.1.15,2013-03-30 07:06:00,
2013-03-30 02:11:00,55.0,52.1,30.14,South,188,0.0,0.0,90,0.00,,,0.00,0,Wunderground v.1.15,2013-03-30 07:11:00,
2013-03-30 02:16:00,55.0,52.1,30.14,South,188,0.0,0.0,90,0.00,,,0.00,0,Wunderground v.1.15,2013-03-30 07:16:00,
2013-03-30 02:22:00,54.8,51.9,30.14,South,188,0.0,0.0,90,0.00,,,0.00,0,Wunderground v.1.15,2013-03-30 07:22:00,
2013-03-30 02:27:00,54.8,51.9,30.14,South,188,0.0,0.0,90,0.00,,,0.00,0,Wunderground v.1.15,2013-03-30 07:27:00,
2013-03-30 02:33:00,54.7,51.8,30.14,South,188,0.0,0.0,90,0.00,,,0.00,0,Wunderground v.1.15,2013-03-30 07:33:00,
2013-03-30 02:38:00,54.6,51.7,30.14,South,188,0.0,0.0,90,0.00,,,0.00,0,Wunderground v.1.15,2013-03-30 07:38:00,
2013-03-30 02:43:00,54.6,51.7,30.14,South,188,0.0,0.0,90,0.00,,,0.00,0,Wunderground v.1.15,2013-03-30 07:43:00,
2013-03-30 02:49:00,54.4,51.8,30.14,South,188,0.0,0.0,91,0.00,,,0.00,0,Wunderground v.1.15,2013-03-30 07:49:00,
2013-03-30 02:55:00,54.3,51.4,30.14,South,188,0.0,0.0,90,0.00,,,0.00,0,Wunderground v.1.15,2013-03-30 07:55:00,
2013-03-30 03:00:00,54.2,51.6,30.14,South,188,0.0,0.0,91,0.00,,,0.00,0,Wunderground v.1.15,2013-03-30 08:00:00,
2013-03-30 03:05:00,54.0,51.4,30.14,South,188,0.0,0.0,91,0.00,,,0.00,0,Wunderground v.1.15,2013-03-30 08:05:00,
2013-03-30 03:10:00,53.9,51.3,30.14,South,188,0.0,0.0,91,0.00,,,0.00,0,Wunderground v.1.15,2013-03-30 08:10:00,
2013-03-30 03:16:00,53.9,51.3,30.13,South,188,0.0,0.0,91,0.00,,,0.00,0,Wunderground v.1.15,2013-03-30 08:16:00,
2013-03-30 03:22:00,53.7,51.1,30.13,South,188,0.0,0.0,91,0.00,,,0.00,0,Wunderground v.1.15,2013-03-30 08:22:00,
2013-03-30 03:27:00,53.5,51.2,30.13,South,188,0.0,0.0,92,0.00,,,0.00,0,Wunderground v.1.15,2013-03-30 08:27:00,
2013-03-30 03:32:00,53.4,51.1,30.13,South,188,0.0,0.0,92,0.00,,,0.00,0,Wunderground v.1.15,2013-03-30 08:32:00,
2013-03-30 03:38:00,53.2,50.9,30.13,South,188,0.0,0.0,92,0.00,,,0.00,0,Wunderground v.1.15,2013-03-30 08:38:00,
2013-03-30 03:43:00,53.0,51.0,30.12,South,188,0.0,0.0,93,0.00,,,0.00,0,Wunderground v.1.15,2013-03-30 08:43:00,
2013-03-30 03:48:00,52.9,50.9,30.12,South,188,0.0,0.0,93,0.00,,,0.00,0,Wunderground v.1.15,2013-03-30 08:48:00,
2013-03-30 03:53:00,52.9,50.9,30.12,South,188,0.0,0.0,93,0.00,,,0.00,0,Wunderground v.1.15,2013-03-30 08:53:00,
2013-03-30 03:59:00,52.8,50.8,30.12,South,188,0.0,0.0,93,0.00,,,0.00,0,Wunderground v.1.15,2013-03-30 08:59:00,
2013-03-30 04:04:00,52.7,50.7,30.12,South,188,0.0,0.0,93,0.00,,,0.00,0,Wunderground v.1.15,2013-03-30 09:04:00,
2013-03-30 04:09:00,52.7,50.7,30.12,South,188,0.0,0.0,93,0.00,,,0.00,0,Wunderground v.1.15,2013-03-30 09:09:00,
2013-03-30 04:15:00,52.6,50.6,30.12,South,188,0.0,0.0,93,0.00,,,0.00,0,Wunderground v.1.15,2013-03-30 09:15:00,
2013-03-30 04:20:00,52.5,50.5,30.12,South,188,0.0,0.0,93,0.00,,,0.00,0,Wunderground v.1.15,2013-03-30 09:20:00,
2013-03-30 04:25:00,52.4,50.7,30.11,South,188,0.0,0.0,94,0.00,,,0.00,0,Wunderground v.1.15,2013-03-30 09:25:00,
2013-03-30 04:30:00,52.3,50.6,30.11,South,188,0.0,0.0,94,0.00,,,0.00,0,Wunderground v.1.15,2013-03-30 09:30:00,
2013-03-30 04:36:00,52.3,50.6,30.11,South,188,0.0,0.0,94,0.00,,,0.00,0,Wunderground v.1.15,2013-03-30 09:36:00,
2013-03-30 04:41:00,52.2,50.5,30.11,South,188,0.0,0.0,94,0.00,,,0.00,0,Wunderground v.1.15,2013-03-30 09:41:00,
2013-03-30 04:46:00,52.2,50.5,30.11,South,188,0.0,0.0,94,0.00,,,0.00,0,Wunderground v.1.15,2013-03-30 09:46:00,
2013-03-30 04:52:00,52.0,50.3,30.11,South,188,0.0,0.0,94,0.00,,,0.00,0,Wunderground v.1.15,2013-03-30 09:52:00,
2013-03-30 04:58:00,52.0,50.6,30.11,South,188,0.0,0.0,95,0.00,,,0.00,0,Wunderground v.1.15,2013-03-30 09:58:00,
2013-03-30 05:04:00,51.8,50.1,30.11,South,188,0.0,0.0,94,0.00,,,0.00,0,Wunderground v.1.15,2013-03-30 10:04:00,
2013-03-30 05:09:00,51.7,50.3,30.11,South,188,0.0,0.0,95,0.00,,,0.00,0,Wunderground v.1.15,2013-03-30 10:09:00,
2013-03-30 05:14:00,51.6,50.2,30.11,South,188,0.0,0.0,95,0.00,,,0.00,0,Wunderground v.1.15,2013-03-30 10:14:00,
2013-03-30 05:20:00,51.5,50.1,30.11,South,188,0.0,0.0,95,0.00,,,0.00,0,Wunderground v.1.15,2013-03-30 10:20:00,
2013-03-30 05:25:00,51.5,50.1,30.11,South,188,0.0,0.0,95,0.00,,,0.00,0,Wunderground v.1.15,2013-03-30 10:25:00,
2013-03-30 05:30:00,51.5,50.1,30.11,South,188,0.0,0.0,95,0.00,,,0.00,0,Wunderground v.1.15,2013-03-30 10:30:00,
2013-03-30 05:35:00,51.5,50.1,30.11,South,188,0.0,0.0,95,0.00,,,0.00,0,Wunderground v.1.15,2013-03-30 10:35:00,
2013-03-30 05:40:00,51.4,50.0,30.11,South,188,0.0,0.0,95,0.00,,,0.00,0,Wunderground v.1.15,2013-03-30 10:40:00,
2013-03-30 05:45:00,51.4,50.0,30.11,South,188,0.0,0.0,95,0.00,,,0.00,0,Wunderground v.1.15,2013-03-30 10:45:00,
2013-03-30 05:51:00,51.5,50.4,30.12,South,188,0.0,0.0,96,0.00,,,0.00,0,Wunderground v.1.15,2013-03-30 10:51:00,
2013-03-30 05:56:00,51.5,50.4,30.12,South,188,0.0,0.0,96,0.00,,,0.00,0,Wunderground v.1.15,2013-03-30 10:56:00,
2013-03-30 06:01:00,51.5,50.4,30.11,South,188,0.0,0.0,96,0.00,,,0.00,0,Wunderground v.1.15,2013-03-30 11:01:00,
2013-03-30 06:06:00,51.7,50.6,30.11,South,188,0.0,0.0,96,0.00,,,0.00,0,Wunderground v.1.15,2013-03-30 11:06:00,
2013-03-30 06:12:00,51.7,50.6,30.12,South,188,0.0,0.0,96,0.00,,,0.00,0,Wunderground v.1.15,2013-03-30 11:12:00,
2013-03-30 06:17:00,51.7,50.6,30.12,South,188,0.0,0.0,96,0.00,,,0.00,0,Wunderground v.1.15,2013-03-30 11:17:00,
2013-03-30 06:22:00,51.8,50.7,30.12,South,188,0.0,0.0,96,0.00,,,0.00,0,Wunderground v.1.15,2013-03-30 11:22:00,
2013-03-30 06:28:00,51.7,50.6,30.13,South,188,0.0,0.0,96,0.00,,,0.00,0,Wunderground v.1.15,2013-03-30 11:28:00,
2013-03-30 06:34:00,51.6,50.5,30.12,South,188,0.0,0.0,96,0.00,,,0.00,0,Wunderground v.1.15,2013-03-30 11:34:00,
2013-03-30 06:39:00,51.6,50.5,30.13,South,188,0.0,0.0,96,0.00,,,0.00,0,Wunderground v.1.15,2013-03-30 11:39:00,
2013-03-30 06:44:00,51.6,50.5,30.13,South,188,0.0,0.0,96,0.00,,,0.00,0,Wunderground v.1.15,2013-03-30 11:44:00,
2013-03-30 06:50:00,51.7,50.6,30.12,South,188,0.0,0.0,96,0.00,,,0.00,0,Wunderground v.1.15,2013-03-30 11:50:00,
2013-03-30 06:56:00,51.8,50.7,30.12,South,187,0.0,0.0,96,0.00,,,0.00,0,Wunderground v.1.15,2013-03-30 11:56:00,
2013-03-30 07:02:00,52.0,51.2,30.12,South,187,0.0,0.0,97,0.00,,,0.00,11,Wunderground v.1.15,2013-03-30 12:02:00,
2013-03-30 07:07:00,52.0,51.2,30.12,South,187,0.0,0.0,97,0.00,,,0.00,19,Wunderground v.1.15,2013-03-30 12:07:00,
2013-03-30 07:13:00,52.1,51.3,30.12,South,187,0.0,0.0,97,0.00,,,0.00,25,Wunderground v.1.15,2013-03-30 12:13:00,
2013-03-30 07:18:00,52.1,51.3,30.12,South,187,0.0,0.0,97,0.00,,,0.00,30,Wunderground v.1.15,2013-03-30 12:18:00,
2013-03-30 07:24:00,52.2,51.4,30.12,South,187,0.0,0.0,97,0.00,,,0.00,44,Wunderground v.1.15,2013-03-30 12:24:00,
2013-03-30 07:29:00,52.3,51.5,30.12,South,187,0.0,0.0,97,0.00,,,0.00,62,Wunderground v.1.15,2013-03-30 12:29:00,
2013-03-30 07:35:00,52.4,51.6,30.12,South,187,0.0,0.0,97,0.00,,,0.00,62,Wunderground v.1.15,2013-03-30 12:35:00,
2013-03-30 07:40:00,52.5,51.7,30.12,South,187,0.0,0.0,97,0.00,,,0.00,60,Wunderground v.1.15,2013-03-30 12:40:00,
2013-03-30 07:45:00,52.8,52.0,30.12,South,183,0.0,0.0,97,0.00,,,0.00,100,Wunderground v.1.15,2013-03-30 12:45:00,
2013-03-30 07:51:00,53.2,52.4,30.13,South,177,0.0,0.0,97,0.00,,,0.00,91,Wunderground v.1.15,2013-03-30 12:51:00,
2013-03-30 07:57:00,53.6,52.8,30.13,SSW,194,0.0,0.0,97,0.00,,,0.00,93,Wunderground v.1.15,2013-03-30 12:57:00,
2013-03-30 08:02:00,54.0,53.2,30.13,SSE,166,0.0,0.0,97,0.00,,,0.00,79,Wunderground v.1.15,2013-03-30 13:02:00,
2013-03-30 08:08:00,54.2,53.4,30.13,SSE,167,0.0,0.0,97,0.00,,,0.00,86,Wunderground v.1.15,2013-03-30 13:08:00,
2013-03-30 08:13:00,54.4,53.6,30.14,SSE,167,0.0,0.0,97,0.00,,,0.00,83,Wunderground v.1.15,2013-03-30 13:13:00,
2013-03-30 08:18:00,54.7,53.9,30.14,South,183,0.0,3.0,97,0.00,,,0.00,120,Wunderground v.1.15,2013-03-30 13:18:00,
2013-03-30 08:24:00,55.1,54.3,30.14,South,181,0.0,0.0,97,0.00,,,0.00,181,Wunderground v.1.15,2013-03-30 13:24:00,
2013-03-30 08:29:00,55.5,54.7,30.13,South,190,0.0,0.0,97,0.00,,,0.00,199,Wunderground v.1.15,2013-03-30 13:29:00,
2013-03-30 08:34:00,55.9,54.8,30.12,SSE,168,1.0,4.0,96,0.00,,,0.00,255,Wunderground v.1.15,2013-03-30 13:34:00,
2013-03-30 08:40:00,56.4,55.3,30.12,South,186,1.0,1.0,96,0.00,,,0.00,294,Wunderground v.1.15,2013-03-30 13:40:00,
2013-03-30 08:46:00,57.1,55.7,30.13,South,188,0.0,3.0,95,0.00,,,0.00,239,Wunderground v.1.15,2013-03-30 13:46:00,
2013-03-30 08:52:00,57.8,55.8,30.13,SSW,195,1.0,1.0,93,0.00,,,0.00,348,Wunderground v.1.15,2013-03-30 13:52:00,
2013-03-30 08:57:00,58.5,56.2,30.13,South,190,1.0,1.0,92,0.00,,,0.00,343,Wunderground v.1.15,2013-03-30 13:57:00,
2013-03-30 09:02:00,59.0,56.1,30.13,SSW,204,0.0,0.0,90,0.00,,,0.00,383,Wunderground v.1.15,2013-03-30 14:02:00,
2013-03-30 09:07:00,59.7,56.1,30.14,South,191,1.0,9.0,88,0.00,,,0.00,350,Wunderground v.1.15,2013-03-30 14:07:00,
2013-03-30 09:13:00,60.2,56.3,30.15,SSE,165,1.0,1.0,87,0.00,,,0.00,311,Wunderground v.1.15,2013-03-30 14:13:00,
2013-03-30 09:18:00,60.6,56.7,30.15,South,178,0.0,1.0,87,0.00,,,0.00,355,Wunderground v.1.15,2013-03-30 14:18:00,
2013-03-30 09:23:00,61.0,56.5,30.15,SW,226,0.0,6.0,85,0.00,,,0.00,338,Wunderground v.1.15,2013-03-30 14:23:00,
2013-03-30 09:29:00,61.2,56.7,30.15,SSW,210,0.0,6.0,85,0.00,,,0.00,404,Wunderground v.1.15,2013-03-30 14:29:00,
2013-03-30 09:34:00,61.7,57.1,30.16,SW,225,0.0,0.0,85,0.00,,,0.00,480,Wunderground v.1.15,2013-03-30 14:34:00,
2013-03-30 09:39:00,62.2,57.3,30.15,South,188,0.0,0.0,84,0.00,,,0.00,343,Wunderground v.1.15,2013-03-30 14:39:00,
2013-03-30 09:45:00,62.7,57.5,30.15,West,267,0.0,4.0,83,0.00,,,0.00,469,Wunderground v.1.15,2013-03-30 14:45:00,
2013-03-30 09:50:00,63.2,57.3,30.15,WSW,258,1.0,7.0,81,0.00,,,0.00,564,Wunderground v.1.15,2013-03-30 14:50:00,
2013-03-30 09:55:00,63.5,57.2,30.15,SSW,206,1.0,7.0,80,0.00,,,0.00,563,Wunderground v.1.15,2013-03-30 14:55:00,
2013-03-30 10:00:00,64.0,57.7,30.15,SSE,151,1.0,1.0,80,0.00,,,0.00,494,Wunderground v.1.15,2013-03-30 15:00:00,
2013-03-30 10:06:00,64.5,57.8,30.15,SSW,211,1.0,1.0,79,0.00,,,0.00,606,Wunderground v.1.15,2013-03-30 15:06:00,
2013-03-30 10:11:00,65.4,58.0,30.15,SW,235,1.0,3.0,77,0.00,,,0.00,670,Wunderground v.1.15,2013-03-30 15:11:00,
2013-03-30 10:17:00,66.0,57.5,30.15,WSW,240,1.0,3.0,74,0.00,,,0.00,752,Wunderground v.1.15,2013-03-30 15:17:00,
2013-03-30 10:23:00,65.8,57.3,30.15,WSW,245,3.0,10.0,74,0.00,,,0.00,359,Wunderground v.1.15,2013-03-30 15:23:00,
2013-03-30 10:28:00,65.8,58.0,30.15,WSW,246,2.0,10.0,76,0.00,,,0.00,519,Wunderground v.1.15,2013-03-30 15:28:00,
2013-03-30 10:34:00,66.2,58.0,30.15,SSW,208,2.0,5.0,75,0.00,,,0.00,548,Wunderground v.1.15,2013-03-30 15:34:00,
2013-03-30 10:39:00,66.5,57.6,30.15,SSW,204,2.0,2.0,73,0.00,,,0.00,243,Wunderground v.1.15,2013-03-30 15:39:00,
2013-03-30 10:45:00,66.4,57.9,30.15,WSW,244,2.0,8.0,74,0.00,,,0.00,480,Wunderground v.1.15,2013-03-30 15:45:00,
2013-03-30 10:50:00,66.7,57.8,30.15,South,188,2.0,6.0,73,0.00,,,0.00,287,Wunderground v.1.15,2013-03-30 15:50:00,
2013-03-30 10:56:00,66.6,56.9,30.14,WSW,256,2.0,12.0,71,0.00,,,0.00,647,Wunderground v.1.15,2013-03-30 15:56:00,
2013-03-30 11:01:00,67.0,58.1,30.15,WSW,244,2.0,2.0,73,0.00,,,0.00,802,Wunderground v.1.15,2013-03-30 16:01:00,
2013-03-30 11:07:00,67.8,57.7,30.14,WSW,250,2.0,9.0,70,0.00,,,0.00,290,Wunderground v.1.15,2013-03-30 16:07:00,
2013-03-30 11:12:00,67.9,56.9,30.14,SW,223,3.0,11.0,68,0.00,,,0.00,355,Wunderground v.1.15,2013-03-30 16:12:00,
2013-03-30 11:17:00,67.5,56.6,30.14,SSW,197,3.0,11.0,68,0.00,,,0.00,877,Wunderground v.1.15,2013-03-30 16:17:00,
2013-03-30 11:23:00,67.8,56.0,30.13,SSE,167,3.0,4.0,66,0.00,,,0.00,599,Wunderground v.1.15,2013-03-30 16:23:00,
2013-03-30 11:28:00,68.1,56.3,30.13,NW,324,3.0,9.0,66,0.00,,,0.00,865,Wunderground v.1.15,2013-03-30 16:28:00,
2013-03-30 11:33:00,68.8,57.0,30.13,SW,217,3.0,7.0,66,0.00,,,0.00,990,Wunderground v.1.15,2013-03-30 16:33:00,
2013-03-30 11:38:00,68.6,55.9,30.14,SSW,192,2.0,7.0,64,0.00,,,0.00,904,Wunderground v.1.15,2013-03-30 16:38:00,
2013-03-30 11:44:00,68.8,55.2,30.13,WSW,237,2.0,13.0,62,0.00,,,0.00,997,Wunderground v.1.15,2013-03-30 16:44:00,
2013-03-30 11:49:00,69.4,55.8,30.13,SSW,196,2.0,13.0,62,0.00,,,0.00,965,Wunderground v.1.15,2013-03-30 16:49:00,
2013-03-30 11:54:00,70.0,55.0,30.13,SSW,192,2.0,7.0,59,0.00,,,0.00,981,Wunderground v.1.15,2013-03-30 16:54:00,
2013-03-30 11:59:00,70.2,51.7,30.13,WSW,258,3.0,3.0,52,0.00,,,0.00,589,Wunderground v.1.15,2013-03-30 16:59:00,
2013-03-30 12:05:00,70.1,52.2,30.13,SW,228,2.0,5.0,53,0.00,,,0.00,793,Wunderground v.1.15,2013-03-30 17:05:00,
2013-03-30 12:10:00,69.7,52.8,30.12,SW,224,3.0,7.0,55,0.00,,,0.00,279,Wunderground v.1.15,2013-03-30 17:10:00,
2013-03-30 12:16:00,69.1,53.2,30.12,WSW,248,2.0,7.0,57,0.00,,,0.00,167,Wunderground v.1.15,2013-03-30 17:16:00,
2013-03-30 12:22:00,68.7,53.3,30.11,South,177,0.0,1.0,58,0.00,,,0.00,192,Wunderground v.1.15,2013-03-30 17:22:00,
2013-03-30 12:27:00,68.5,53.6,30.10,SSW,202,0.0,1.0,59,0.00,,,0.00,601,Wunderground v.1.15,2013-03-30 17:27:00,
2013-03-30 12:34:00,68.9,54.9,30.10,South,170,1.0,3.0,61,0.00,,,0.00,733,Wunderground v.1.15,2013-03-30 17:34:00,
2013-03-30 12:42:00,69.4,54.9,30.09,West,268,1.0,3.0,60,0.00,,,0.00,534,Wunderground v.1.15,2013-03-30 17:42:00,
2013-03-30 12:48:00,69.7,55.6,30.09,WSW,251,1.0,3.0,61,0.00,,,0.00,1197,Wunderground v.1.15,2013-03-30 17:48:00,
2013-03-30 12:54:00,69.9,54.4,30.09,WNW,287,2.0,4.0,58,0.00,,,0.00,504,Wunderground v.1.15,2013-03-30 17:54:00,
2013-03-30 12:59:00,70.2,53.8,30.09,SSW,210,2.0,4.0,56,0.00,,,0.00,443,Wunderground v.1.15,2013-03-30 17:59:00,
2013-03-30 13:07:00,69.8,53.4,30.09,SW,217,3.0,8.0,56,0.00,,,0.00,380,Wunderground v.1.15,2013-03-30 18:07:00,
2013-03-30 13:14:00,69.5,53.6,30.09,SSW,201,2.0,3.0,57,0.00,,,0.00,355,Wunderground v.1.15,2013-03-30 18:14:00,
2013-03-30 13:20:00,69.5,54.1,30.09,South,191,2.0,2.0,58,0.00,,,0.00,390,Wunderground v.1.15,2013-03-30 18:20:00,
2013-03-30 13:25:00,69.8,53.9,30.09,SSE,165,1.0,6.0,57,0.00,,,0.00,334,Wunderground v.1.15,2013-03-30 18:25:00,
2013-03-30 13:30:00,69.8,54.4,30.08,SW,222,0.0,0.0,58,0.00,,,0.00,315,Wunderground v.1.15,2013-03-30 18:30:00,
2013-03-30 13:36:00,69.6,53.2,30.07,West,275,1.0,5.0,56,0.00,,,0.00,353,Wunderground v.1.15,2013-03-30 18:36:00,
2013-03-30 13:41:00,69.5,53.1,30.07,SW,220,1.0,1.0,56,0.00,,,0.00,311,Wunderground v.1.15,2013-03-30 18:41:00,
2013-03-30 13:47:00,69.7,53.8,30.06,SSE,148,0.0,1.0,57,0.00,,,0.00,367,Wunderground v.1.15,2013-03-30 18:47:00,
2013-03-30 13:52:00,69.8,53.9,30.05,SW,223,0.0,0.0,57,0.00,,,0.00,434,Wunderground v.1.15,2013-03-30 18:52:00,
2013-03-30 13:58:00,70.1,53.7,30.05,SSW,199,0.0,0.0,56,0.00,,,0.00,367,Wunderground v.1.15,2013-03-30 18:58:00,
2013-03-30 14:03:00,70.7,53.2,30.05,SE,127,1.0,5.0,54,0.00,,,0.00,928,Wunderground v.1.15,2013-03-30 19:03:00,
2013-03-30 14:08:00,71.3,53.3,30.04,SE,132,2.0,5.0,53,0.00,,,0.00,893,Wunderground v.1.15,2013-03-30 19:08:00,
2013-03-30 14:14:00,71.8,54.3,30.04,ESE,104,2.0,13.0,54,0.00,,,0.00,737,Wunderground v.1.15,2013-03-30 19:14:00,
2013-03-30 14:20:00,71.6,53.6,30.03,SW,220,3.0,5.0,53,0.00,,,0.00,765,Wunderground v.1.15,2013-03-30 19:20:00,
2013-03-30 14:25:00,71.7,53.7,30.03,SSW,204,3.0,5.0,53,0.00,,,0.00,865,Wunderground v.1.15,2013-03-30 19:25:00,
2013-03-30 14:31:00,71.7,54.2,30.02,WSW,243,3.0,3.0,54,0.00,,,0.00,840,Wunderground v.1.15,2013-03-30 19:31:00,
2013-03-30 14:36:00,71.9,54.3,30.02,South,181,3.0,17.0,54,0.00,,,0.00,856,Wunderground v.1.15,2013-03-30 19:36:00,
2013-03-30 14:41:00,72.1,54.5,30.02,South,177,4.0,4.0,54,0.00,,,0.00,877,Wunderground v.1.15,2013-03-30 19:41:00,
2013-03-30 14:47:00,72.5,54.4,30.02,SW,227,3.0,6.0,53,0.00,,,0.00,870,Wunderground v.1.15,2013-03-30 19:47:00,
2013-03-30 14:52:00,73.2,55.0,30.02,SSW,199,1.0,4.0,53,0.00,,,0.00,858,Wunderground v.1.15,2013-03-30 19:52:00,
2013-03-30 14:57:00,72.9,54.8,30.02,South,184,3.0,12.0,53,0.00,,,0.00,870,Wunderground v.1.15,2013-03-30 19:57:00,
2013-03-30 15:02:00,72.7,54.6,30.02,SSW,194,4.0,12.0,53,0.00,,,0.00,211,Wunderground v.1.15,2013-03-30 20:02:00,
2013-03-30 15:08:00,72.5,54.4,30.01,SSW,200,5.0,12.0,53,0.00,,,0.00,814,Wunderground v.1.15,2013-03-30 20:08:00,
2013-03-30 15:13:00,72.6,55.0,30.01,SSW,202,4.0,5.0,54,0.00,,,0.00,851,Wunderground v.1.15,2013-03-30 20:13:00,
2013-03-30 15:18:00,73.3,55.6,30.01,WSW,243,2.0,6.0,54,0.00,,,0.00,814,Wunderground v.1.15,2013-03-30 20:18:00,
2013-03-30 15:29:00,73.3,55.1,30.01,West,268,4.0,14.0,53,0.00,,,0.00,798,Wunderground v.1.15,2013-03-30 20:29:00,
2013-03-30 15:34:00,72.9,54.2,30.01,SSW,196,4.0,8.0,52,0.00,,,0.00,216,Wunderground v.1.15,2013-03-30 20:34:00,
2013-03-30 15:40:00,72.3,54.7,30.00,South,179,2.0,2.0,54,0.00,,,0.00,146,Wunderground v.1.15,2013-03-30 20:40:00,
2013-03-30 15:45:00,71.9,54.3,30.01,SSW,204,1.0,7.0,54,0.00,,,0.00,206,Wunderground v.1.15,2013-03-30 20:45:00,
2013-03-30 15:52:00,72.1,54.5,30.00,SSW,210,2.0,6.0,54,0.00,,,0.00,737,Wunderground v.1.15,2013-03-30 20:52:00,
2013-03-30 15:57:00,72.3,55.2,30.00,SSW,209,1.0,6.0,55,0.00,,,0.00,717,Wunderground v.1.15,2013-03-30 20:57:00,
2013-03-30 16:03:00,72.6,55.0,30.00,SSW,212,1.0,5.0,54,0.00,,,0.00,717,Wunderground v.1.15,2013-03-30 21:03:00,
2013-03-30 16:08:00,72.6,55.0,29.99,WSW,237,1.0,6.0,54,0.00,,,0.00,186,Wunderground v.1.15,2013-03-30 21:08:00,
2013-03-30 16:13:00,72.9,55.3,29.99,SW,231,1.0,2.0,54,0.00,,,0.00,643,Wunderground v.1.15,2013-03-30 21:13:00,
2013-03-30 16:19:00,73.0,54.9,29.99,SSW,204,2.0,7.0,53,0.00,,,0.00,167,Wunderground v.1.15,2013-03-30 21:19:00,
2013-03-30 16:24:00,72.6,54.5,29.99,SSW,207,2.0,3.0,53,0.00,,,0.00,650,Wunderground v.1.15,2013-03-30 21:24:00,
2013-03-30 16:29:00,72.9,54.2,29.99,SSW,199,3.0,10.0,52,0.00,,,0.00,624,Wunderground v.1.15,2013-03-30 21:29:00,
2013-03-30 16:35:00,73.5,54.8,29.99,WSW,252,3.0,9.0,52,0.00,,,0.00,592,Wunderground v.1.15,2013-03-30 21:35:00,
2013-03-30 16:40:00,73.7,55.0,29.99,WSW,252,2.0,2.0,52,0.00,,,0.00,216,Wunderground v.1.15,2013-03-30 21:40:00,
2013-03-30 16:45:00,73.4,54.7,29.98,SW,221,3.0,9.0,52,0.00,,,0.00,508,Wunderground v.1.15,2013-03-30 21:45:00,
2013-03-30 16:50:00,73.6,54.9,29.98,SW,223,3.0,3.0,52,0.00,,,0.00,424,Wunderground v.1.15,2013-03-30 21:50:00,
2013-03-30 16:56:00,73.7,53.9,29.98,SW,231,3.0,6.0,50,0.00,,,0.00,234,Wunderground v.1.15,2013-03-30 21:56:00,
2013-03-30 17:01:00,73.4,54.2,29.99,SW,220,3.0,3.0,51,0.00,,,0.00,202,Wunderground v.1.15,2013-03-30 22:01:00,
2013-03-30 17:08:00,73.1,53.9,29.98,WSW,242,2.0,7.0,51,0.00,,,0.00,257,Wunderground v.1.15,2013-03-30 22:08:00,
2013-03-30 17:13:00,73.1,52.8,29.98,WSW,250,2.0,7.0,49,0.00,,,0.00,295,Wunderground v.1.15,2013-03-30 22:13:00,
2013-03-30 17:19:00,73.2,52.9,29.98,West,271,2.0,8.0,49,0.00,,,0.00,209,Wunderground v.1.15,2013-03-30 22:19:00,
2013-03-30 17:25:00,73.1,51.7,29.99,WSW,249,2.0,17.0,47,0.00,,,0.00,149,Wunderground v.1.15,2013-03-30 22:25:00,
2013-03-30 17:31:00,72.8,51.4,29.99,WSW,244,2.0,2.0,47,0.00,,,0.00,120,Wunderground v.1.15,2013-03-30 22:31:00,
2013-03-30 17:37:00,72.6,52.3,30.00,WSW,243,1.0,11.0,49,0.00,,,0.00,104,Wunderground v.1.15,2013-03-30 22:37:00,
2013-03-30 17:42:00,72.4,52.2,30.01,SW,229,1.0,7.0,49,0.00,,,0.00,70,Wunderground v.1.15,2013-03-30 22:42:00,
2013-03-30 17:47:00,72.2,52.5,30.01,WSW,245,1.0,7.0,50,0.00,,,0.00,40,Wunderground v.1.15,2013-03-30 22:47:00,
2013-03-30 17:54:00,71.9,-99.9,30.02,WSW,258,1.0,1.0,255,0.00,,,0.00,25,Wunderground v.1.15,2013-03-30 22:54:00,
2013-03-30 18:00:00,71.7,53.7,30.02,WNW,285,0.0,6.0,53,0.00,,,0.00,12,Wunderground v.1.15,2013-03-30 23:00:00,
2013-03-30 18:06:00,70.8,54.8,30.03,West,275,1.0,6.0,57,0.00,,,0.00,7,Wunderground v.1.15,2013-03-30 23:06:00,
2013-03-30 18:11:00,69.2,56.9,30.02,WSW,258,1.0,1.0,65,0.00,,,0.00,9,Wunderground v.1.15,2013-03-30 23:11:00,
2013-03-30 18:17:00,67.7,58.7,30.01,WSW,258,0.0,1.0,73,0.00,,,0.01,11,Wunderground v.1.15,2013-03-30 23:17:00,
2013-03-30 18:22:00,65.0,58.7,29.98,SSE,148,0.0,0.0,80,0.00,,,0.01,26,Wunderground v.1.15,2013-03-30 23:22:00,
2013-03-30 18:27:00,63.2,58.6,29.98,South,173,0.0,0.0,85,0.00,,,0.01,54,Wunderground v.1.15,2013-03-30 23:27:00,
2013-03-30 18:32:00,62.6,58.4,29.97,SW,217,0.0,0.0,86,0.00,,,0.01,72,Wunderground v.1.15,2013-03-30 23:32:00,
2013-03-30 18:37:00,62.4,58.2,29.97,SSW,199,0.0,10.0,86,0.00,,,0.01,56,Wunderground v.1.15,2013-03-30 23:37:00,
2013-03-30 18:42:00,62.6,58.4,29.97,SSW,200,0.0,0.0,86,0.00,,,0.01,49,Wunderground v.1.15,2013-03-30 23:42:00,
2013-03-30 18:48:00,62.7,58.5,29.96,SSW,198,0.0,2.0,86,0.00,,,0.01,49,Wunderground v.1.15,2013-03-30 23:48:00,
2013-03-30 18:53:00,62.9,58.3,29.96,SSW,210,0.0,0.0,85,0.00,,,0.01,42,Wunderground v.1.15,2013-03-30 23:53:00,
2013-03-30 18:58:00,63.1,58.2,29.95,SW,227,1.0,5.0,84,0.00,,,0.01,37,Wunderground v.1.15,2013-03-30 23:58:00,
2013-03-30 19:04:00,63.4,58.1,29.95,SSE,149,1.0,1.0,83,0.00,,,0.01,37,Wunderground v.1.15,2013-03-31 00:04:00,
2013-03-30 19:09:00,63.4,58.5,29.96,SSW,196,0.0,0.0,84,0.00,,,0.02,19,Wunderground v.1.15,2013-03-31 00:09:00,
2013-03-30 19:14:00,63.3,58.4,29.96,SSW,198,0.0,0.0,84,0.00,,,0.02,11,Wunderground v.1.15,2013-03-31 00:14:00,
2013-03-30 19:20:00,63.2,58.6,29.97,SSW,200,0.0,0.0,85,0.00,,,0.02,5,Wunderground v.1.15,2013-03-31 00:20:00,
2013-03-30 19:25:00,63.0,58.4,29.96,SSW,200,0.0,0.0,85,0.00,,,0.02,0,Wunderground v.1.15,2013-03-31 00:25:00,
2013-03-30 19:31:00,62.7,58.5,29.97,SSW,200,0.0,0.0,86,0.00,,,0.02,0,Wunderground v.1.15,2013-03-31 00:31:00,
2013-03-30 19:38:00,62.3,58.4,29.97,SSW,200,0.0,0.0,87,0.00,,,0.02,0,Wunderground v.1.15,2013-03-31 00:38:00,
2013-03-30 19:44:00,62.0,58.1,29.96,SSW,200,0.0,0.0,87,0.00,,,0.03,0,Wunderground v.1.15,2013-03-31 00:44:00,
2013-03-30 19:49:00,61.7,57.8,29.97,SSW,200,0.0,0.0,87,0.00,,,0.03,0,Wunderground v.1.15,2013-03-31 00:49:00,
2013-03-30 19:55:00,61.4,57.8,29.97,SSW,200,0.0,0.0,88,0.00,,,0.03,0,Wunderground v.1.15,2013-03-31 00:55:00,
2013-03-30 20:01:00,61.2,57.6,29.97,SSW,200,0.0,0.0,88,0.00,,,0.03,0,Wunderground v.1.15,2013-03-31 01:01:00,
2013-03-30 20:06:00,60.9,57.6,29.97,SSW,200,0.0,0.0,89,0.00,,,0.03,0,Wunderground v.1.15,2013-03-31 01:06:00,
2013-03-30 20:12:00,60.7,57.4,29.97,SSW,200,0.0,0.0,89,0.00,,,0.04,0,Wunderground v.1.15,2013-03-31 01:12:00,
2013-03-30 20:17:00,60.5,57.6,29.98,SSW,200,0.0,0.0,90,0.00,,,0.04,0,Wunderground v.1.15,2013-03-31 01:17:00,
2013-03-30 20:23:00,60.2,57.6,29.98,SSW,200,0.0,0.0,91,0.00,,,0.04,0,Wunderground v.1.15,2013-03-31 01:23:00,
2013-03-30 20:29:00,60.0,57.4,29.98,SSW,200,0.0,0.0,91,0.00,,,0.04,0,Wunderground v.1.15,2013-03-31 01:29:00,
2013-03-30 20:35:00,59.8,57.5,29.98,SSW,200,0.0,0.0,92,0.00,,,0.05,0,Wunderground v.1.15,2013-03-31 01:35:00,
2013-03-30 20:40:00,59.7,57.4,29.98,SSW,200,0.0,0.0,92,0.00,,,0.05,0,Wunderground v.1.15,2013-03-31 01:40:00,
2013-03-30 20:46:00,59.6,57.3,29.99,SSW,200,0.0,0.0,92,0.00,,,0.05,0,Wunderground v.1.15,2013-03-31 01:46:00,
2013-03-30 20:51:00,59.5,57.2,29.99,SSW,200,0.0,0.0,92,0.00,,,0.05,0,Wunderground v.1.15,2013-03-31 01:51:00,
2013-03-30 20:56:00,59.4,57.1,29.99,SSW,200,0.0,0.0,92,0.00,,,0.06,0,Wunderground v.1.15,2013-03-31 01:56:00,
2013-03-30 21:01:00,59.3,57.0,29.99,SSW,200,0.0,0.0,92,0.00,,,0.06,0,Wunderground v.1.15,2013-03-31 02:01:00,
2013-03-30 21:08:00,59.1,56.8,30.00,SSW,202,0.0,0.0,92,0.00,,,0.06,0,Wunderground v.1.15,2013-03-31 02:08:00,
2013-03-30 21:14:00,59.0,56.7,30.00,SSW,203,0.0,0.0,92,0.04,,,0.07,0,Wunderground v.1.15,2013-03-31 02:14:00,
2013-03-30 21:20:00,59.1,56.8,30.01,SSW,203,0.0,0.0,92,0.04,,,0.07,0,Wunderground v.1.15,2013-03-31 02:20:00,
2013-03-30 21:26:00,59.3,56.7,30.01,SSW,203,0.0,0.0,91,0.04,,,0.07,0,Wunderground v.1.15,2013-03-31 02:26:00,
2013-03-30 21:31:00,59.3,56.7,30.01,SSW,203,0.0,0.0,91,0.00,,,0.08,0,Wunderground v.1.15,2013-03-31 02:31:00,
2013-03-30 21:36:00,59.3,56.7,30.01,SSW,203,0.0,0.0,91,0.00,,,0.08,0,Wunderground v.1.15,2013-03-31 02:36:00,
2013-03-30 21:41:00,59.2,56.3,30.01,SSW,203,0.0,0.0,90,0.00,,,0.08,0,Wunderground v.1.15,2013-03-31 02:41:00,
2013-03-30 21:46:00,59.0,56.4,30.02,SSW,203,0.0,0.0,91,0.00,,,0.08,0,Wunderground v.1.15,2013-03-31 02:46:00,
2013-03-30 21:52:00,59.0,56.4,30.02,SSW,203,0.0,0.0,91,0.00,,,0.08,0,Wunderground v.1.15,2013-03-31 02:52:00,
2013-03-30 21:58:00,59.0,56.4,30.02,SSW,203,0.0,0.0,91,0.00,,,0.08,0,Wunderground v.1.15,2013-03-31 02:58:00,
2013-03-30 22:04:00,58.9,56.3,30.02,SSW,203,0.0,0.0,91,0.00,,,0.08,0,Wunderground v.1.15,2013-03-31 03:04:00,
2013-03-30 22:09:00,58.7,56.1,30.02,SSW,203,0.0,0.0,91,0.00,,,0.08,0,Wunderground v.1.15,2013-03-31 03:09:00,
2013-03-30 22:14:00,58.5,56.2,30.02,SSW,203,0.0,0.0,92,0.00,,,0.08,0,Wunderground v.1.15,2013-03-31 03:14:00,
2013-03-30 22:20:00,58.5,56.2,30.02,SSW,203,0.0,0.0,92,0.00,,,0.08,0,Wunderground v.1.15,2013-03-31 03:20:00,
2013-03-30 22:25:00,58.4,56.1,30.02,SSW,203,0.0,0.0,92,0.00,,,0.08,0,Wunderground v.1.15,2013-03-31 03:25:00,
2013-03-30 22:30:00,58.4,56.1,30.02,SSW,203,0.0,0.0,92,0.00,,,0.08,0,Wunderground v.1.15,2013-03-31 03:30:00,
2013-03-30 22:35:00,58.3,56.0,30.02,SSW,203,0.0,0.0,92,0.00,,,0.08,0,Wunderground v.1.15,2013-03-31 03:35:00,
2013-03-30 22:41:00,58.3,56.0,30.02,SSW,203,0.0,0.0,92,0.00,,,0.08,0,Wunderground v.1.15,2013-03-31 03:41:00,
2013-03-30 22:47:00,58.2,55.9,30.02,SSW,203,0.0,0.0,92,0.00,,,0.08,0,Wunderground v.1.15,2013-03-31 03:47:00,
2013-03-30 22:52:00,58.3,56.0,30.02,SSW,203,0.0,0.0,92,0.00,,,0.08,0,Wunderground v.1.15,2013-03-31 03:52:00,
2013-03-30 22:57:00,58.3,56.0,30.02,SSW,203,0.0,0.0,92,0.00,,,0.08,0,Wunderground v.1.15,2013-03-31 03:57:00,
2013-03-30 23:00:00,58.3,56.0,30.02,SSW,203,0.0,0.0,92,0.00,,,0.08,0,Wunderground v.1.15,2013-03-31 04:00:00,
2013-03-30 23:01:00,58.3,56.0,30.02,SSW,203,0.0,0.0,92,0.00,,,0.08,0,Wunderground v.1.15,2013-03-31 04:01:00,
2013-03-30 23:04:00,58.2,55.9,30.02,SSW,203,0.0,0.0,92,0.00,,,0.08,0,Wunderground v.1.15,2013-03-31 04:04:00,
2013-03-30 23:09:00,58.2,55.9,30.02,SSW,203,0.0,0.0,92,0.00,,,0.08,0,Wunderground v.1.15,2013-03-31 04:09:00,
2013-03-30 23:14:00,58.1,55.8,30.02,SSW,203,0.0,0.0,92,0.00,,,0.08,0,Wunderground v.1.15,2013-03-31 04:14:00,
2013-03-30 23:19:00,58.0,55.7,30.02,SSW,203,0.0,0.0,92,0.00,,,0.08,0,Wunderground v.1.15,2013-03-31 04:19:00,
2013-03-30 23:24:00,57.9,55.6,30.01,SSW,203,0.0,0.0,92,0.00,,,0.08,0,Wunderground v.1.15,2013-03-31 04:24:00,
2013-03-30 23:30:00,57.8,55.5,30.01,SSW,203,0.0,0.0,92,0.00,,,0.08,0,Wunderground v.1.15,2013-03-31 04:30:00,
2013-03-30 23:35:00,57.7,55.4,30.01,SSW,204,0.0,0.0,92,0.00,,,0.08,0,Wunderground v.1.15,2013-03-31 04:35:00,
2013-03-30 23:40:00,57.6,55.3,30.01,SSW,204,0.0,0.0,92,0.00,,,0.08,0,Wunderground v.1.15,2013-03-31 04:40:00,
2013-03-30 23:45:00,57.6,55.3,30.01,SSW,204,0.0,0.0,92,0.00,,,0.08,0,Wunderground v.1.15,2013-03-31 04:45:00,
2013-03-30 23:50:00,57.6,55.3,30.01,SSW,204,0.0,0.0,92,0.00,,,0.08,0,Wunderground v.1.15,2013-03-31 04:50:00,
2013-03-30 23:55:00,57.6,55.6,30.01,SSW,204,0.0,0.0,93,0.00,,,0.08,0,Wunderground v.1.15,2013-03-31 04:55:00,